Temperature
19 19 19 19 20 22 23 24 25 24 25 24 23 24 24 23 23 21 18 18 18 18 18 18 18 18 18 18 18 18 18 18 18 18 18 18 18 18 18 18 18 18 18 19 19 19 19 19 18
19 19 19 20 22 23 24 24 24 25 24 23 23 23 23 22 21 20 18 18 18 18 18 17 18 18 18 18 18 18 18 18 18 18 18 18 18 18 18 18 18 18 18 18 18 18 18 18 18
19 19 19 21 23 24 24 24 25 24 23 23 23 23 23 21 20 19 18 18 18 18 18 18 18 18 18 18 18 18 18 18 18 18 18 18 18 18 18 18 18 18 18 18 18 18 18 18 18
19 19 20 23 23 24 24 24 25 24 23 23 23 23 21 19 19 19 18 18 18 18 18 17 18 18 18 17 18 18 18 18 17 17 17 17 17 18 18 18 18 18 18 18 18 18 18 18 18
19 21 23 23 24 24 24 24 24 24 24 24 24 23 21 19 19 18 18 18 18 18 18 17 18 18 17 17 17 17 17 17 17 17 17 17 17 17 17 17 17 18 18 18 18 17 18 18 18
20 22 23 23 24 24 24 24 24 24 24 23 23 23 21 19 18 18 18 18 18 18 17 17 17 17 17 17 17 17 17 17 17 17 17 17 17 17 17 17 17 17 17 17 17 17 17 17 17
21 23 23 24 24 24 24 23 24 24 24 24 23 23 21 19 18 18 18 18 18 17 17 17 17 16 17 16 16 16 16 16 16 16 16 16 17 17 17 17 17 17 17 17 17 17 17 17 17
21 23 23 24 24 24 24 23 23 24 24 22 22 23 22 20 18 18 18 18 18 17 17 17 16 16 16 16 16 16 16 16 16 16 16 16 16 16 16 16 16 17 17 17 17 17 17 17 17
21 23 23 24 24 24 24 24 23 22 23 22 22 22 21 19 19 18 18 18 18 17 17 17 16 16 15 15 15 15 15 15 15 15 15 15 15 15 15 16 16 16 16 17 17 17 17 17 17
22 23 24 24 24 24 24 24 23 23 23 23 22 21 20 19 19 19 19 19 18 18 17 17 16 16 15 15 15 15 15 14 14 15 15 15 15 15 15 15 16 16 16 16 17 17 17 17 17
23 24 24 24 23 23 23 23 23 24 24 24 23 21 20 20 20 20 20 19 18 18 17 16 16 16 15 15 15 14 14 14 14 14 14 14 14 15 15 15 15 15 15 16 16 16 16 16 17
23 24 23 23 22 23 23 23 23 23 24 23 23 22 21 20 20 20 20 19 18 17 17 16 16 15 15 15 14 14 14 14 14 14 14 14 14 14 15 15 15 15 15 15 16 16 16 16 16
24 24 22 22 22 22 23 23 23 23 23 22 22 21 21 21 21 20 19 19 18 17 16 16 15 15 15 14 14 14 14 14 14 14 14 14 14 14 14 14 15 15 15 15 15 16 16 16 16
23 23 23 22 22 22 23 23 23 24 22 22 22 21 21 21 20 20 19 18 18 17 17 16 15 15 14 14 14 14 14 14 14 14 14 14 14 14 14 14 14 15 15 15 15 15 16 16 16
22 23 23 23 23 23 23 24 24 24 22 22 22 22 21 21 20 20 19 18 18 17 16 16 15 15 14 14 14 14 14 14 13 13 13 13 13 14 14 14 14 14 14 14 15 15 15 15 16
23 24 24 24 23 23 23 24 25 23 22 23 22 22 21 20 20 20 19 18 18 17 16 15 15 14 14 14 13 13 13 13 13 13 13 13 13 13 13 14 14 14 14 14 14 15 15 15 15
24 24 24 24 24 24 24 25 25 23 23 23 23 23 22 21 20 19 19 18 17 17 16 15 15 14 14 13 13 13 13 13 13 13 13 13 13 13 13 13 13 14 14 14 14 14 15 15 15
24 25 25 25 25 24 24 25 25 23 23 24 23 23 22 22 21 20 18 18 17 16 16 15 14 14 14 13 13 13 13 13 13 13 12 12 12 13 13 13 13 13 13 13 14 14 14 14 15
25 25 25 25 25 24 24 25 26 25 23 24 23 23 22 22 21 19 18 17 17 16 16 15 15 14 13 13 13 13 13 13 13 12 12 12 12 12 12 13 13 13 13 13 13 14 14 14 14
24 25 25 25 24 24 25 25 26 26 24 24 24 23 23 22 21 19 18 17 17 16 16 16 15 14 13 13 13 12 12 12 12 12 12 12 12 12 12 12 12 12 13 13 13 13 14 14 14
24 25 25 25 24 24 24 25 26 26 24 23 23 23 23 22 21 20 18 18 17 16 16 15 15 14 13 13 12 12 12 12 12 12 12 12 12 12 12 12 12 12 12 12 13 13 13 14 14
24 25 24 24 24 25 24 25 26 26 25 24 23 22 22 22 21 20 19 18 17 16 16 15 14 14 13 13 13 13 12 13 12 12 12 12 12 12 12 12 12 12 12 12 13 12 13 13 13
24 23 24 24 24 25 25 24 26 25 25 26 25 23 22 21 20 20 19 18 17 16 16 15 14 14 13 13 12 12 12 12 12 12 12 12 12 11 11 12 12 12 12 12 12 12 12 13 13
23 23 24 24 25 24 25 24 25 26 26 26 25 23 22 21 20 19 18 18 17 16 16 15 14 14 13 13 13 12 12 12 12 12 12 12 12 12 12 11 12 12 12 12 12 12 12 12 12
24 24 24 24 24 25 24 24 25 26 25 25 25 24 22 21 20 19 19 18 17 17 16 15 15 14 13 13 13 13 12 12 12 12 12 12 12 12 12 11 12 12 12 12 12 12 12 12 12
25 25 24 23 24 25 24 24 26 26 24 23 23 23 22 21 20 19 19 19 18 17 16 15 15 14 14 13 13 13 13 12 13 12 12 12 12 12 11 11 11 11 12 12 12 12 12 12 12
25 25 25 25 24 24 25 25 26 26 25 24 23 22 22 21 20 19 19 18 18 17 17 16 15 14 14 13 13 13 13 13 12 12 12 12 12 12 11 11 11 11 11 11 11 11 12 12 12
24 25 24 24 23 23 24 25 25 26 26 25 24 23 22 21 20 20 19 18 18 17 17 16 15 15 14 14 13 13 13 13 12 12 12 12 12 12 11 11 11 11 11 11 11 11 11 11 12
23 23 24 25 24 23 23 25 26 26 25 25 25 24 22 21 20 20 19 19 18 17 17 16 15 15 14 14 14 13 13 13 13 12 12 12 12 12 12 11 12 12 12 12 11 11 11 11 12
24 25 24 24 24 24 23 24 27 25 25 24 24 23 22 21 20 20 19 18 18 17 17 16 16 15 15 14 14 14 13 13 13 13 12 12 12 12 12 12 12 12 12 12 11 11 11 11 11
Wind_Speed
8 6 3 2 2 2 1 2 2 3 3 4 5 3 4 5 4 4 5 5 5 6 7 7 4 3 2 2 1 1 1 2 2 3 3 4 5 5 5 5 5 5 4 4 3 2 2 1 1
8 5 3 3 3 2 3 3 4 5 5 4 4 3 4 6 6 5 5 5 6 6 6 5 5 3 2 1 1 1 2 3 4 4 5 5 6 6 6 6 6 6 6 6 5 4 3 2 2
8 4 3 2 2 1 4 4 5 6 4 1 2 3 4 5 5 4 6 7 7 6 5 6 4 3 2 2 1 1 2 4 5 5 6 6 7 7 7 7 8 8 7 7 6 5 4 4 3
5 3 3 3 2 2 2 4 4 5 3 2 3 5 5 5 4 6 8 7 7 6 5 6 5 4 3 2 2 2 2 3 4 5 6 7 7 7 8 8 8 8 8 7 7 6 5 5 4
4 3 3 3 2 2 2 2 3 2 1 3 3 5 6 5 6 8 8 7 7 6 5 6 6 5 4 3 3 3 3 4 4 5 6 7 7 7 7 7 8 8 9 8 8 7 6 6 5
4 3 3 2 3 3 3 4 3 2 2 3 3 5 5 6 7 7 7 6 6 5 4 5 6 6 6 6 5 4 4 4 4 4 5 6 6 6 6 6 6 7 8 8 8 8 7 6 6
3 3 2 1 2 3 4 4 4 3 3 3 3 4 6 8 7 7 6 5 5 4 3 3 3 4 4 5 6 6 5 5 5 5 5 5 6 6 6 6 6 7 7 8 8 8 7 7 6
3 3 2 2 3 3 4 4 3 3 3 4 3 2 5 9 9 7 6 5 4 3 2 3 3 4 4 4 5 6 6 6 5 5 4 5 6 7 6 7 5 6 6 7 7 6 6 7 7
3 3 2 1 2 2 5 5 4 2 4 4 2 3 7 12 11 8 6 5 4 2 1 2 3 4 4 5 5 5 4 3 5 4 3 6 7 7 6 4 4 5 6 7 7 7 6 6 6
5 3 2 1 1 2 5 5 5 5 5 5 6 6 10 12 11 8 6 4 3 1 1 2 3 4 5 6 6 5 5 5 6 6 6 6 6 5 6 2 4 4 5 7 7 7 8 7 5
5 4 2 3 2 2 4 5 5 6 4 5 7 11 12 11 9 7 5 3 1 0 1 3 4 4 5 5 6 6 5 5 5 5 6 6 6 5 5 4 4 4 5 6 6 8 6 6 5
5 3 2 2 3 4 5 5 6 7 2 3 7 11 13 12 9 7 5 3 2 1 1 3 4 4 5 6 6 5 4 4 5 5 6 6 4 4 4 3 3 3 3 3 4 4 5 5 7
7 3 3 3 4 5 5 6 5 6 5 5 9 12 12 11 9 7 4 3 3 1 1 2 3 5 5 5 5 5 4 5 5 5 6 6 5 5 4 3 3 4 3 3 3 4 4 5 6
3 3 3 4 5 5 6 6 5 6 7 9 11 12 12 10 9 8 6 5 3 2 1 1 3 4 5 5 5 5 5 4 5 5 6 6 5 5 5 4 3 3 3 3 3 4 4 4 5
3 4 4 5 6 4 5 7 8 6 9 11 12 12 11 10 9 8 6 5 3 2 1 1 2 3 5 5 5 4 4 5 5 5 6 6 6 6 5 4 3 3 3 3 3 4 3 4 4
4 4 4 5 6 5 6 6 3 7 11 11 11 12 11 10 10 8 6 5 3 2 1 0 1 3 4 4 4 4 4 4 4 5 5 6 7 6 5 4 4 3 3 3 3 3 3 3 4
5 5 4 4 6 5 7 6 2 6 10 11 12 11 11 11 10 9 7 6 4 3 1 0 1 3 3 4 3 3 3 3 4 5 5 6 7 7 5 4 4 4 3 2 3 2 3 3 3
6 5 4 3 4 7 9 9 5 6 10 11 11 11 11 11 10 9 8 6 5 4 2 1 1 2 3 3 2 2 2 3 4 4 5 6 6 7 6 4 4 4 3 3 2 2 2 2 2
4 5 5 3 1 6 9 11 9 8 10 12 12 13 12 11 10 9 9 8 7 6 3 1 1 1 2 2 3 3 3 3 3 4 6 5 6 6 5 5 5 4 4 4 3 2 2 2 2
6 7 6 2 1 5 8 12 11 9 11 12 13 14 14 12 11 10 10 10 8 6 5 3 1 1 1 2 3 2 3 3 3 3 3 5 6 6 5 5 4 4 3 4 3 2 2 1 1
8 8 7 6 3 5 7 10 8 6 9 10 12 13 13 13 13 12 12 11 9 8 6 3 1 1 1 1 1 1 1 1 1 2 3 5 5 6 6 6 5 4 3 3 3 3 3 2 1
8 4 6 6 6 5 4 9 6 3 7 10 12 13 14 13 13 12 12 12 11 9 6 4 3 2 1 1 1 2 3 3 3 3 3 3 4 4 5 5 5 4 4 3 3 3 3 2 1
3 1 3 5 7 9 7 8 6 2 6 8 11 13 13 13 13 13 12 12 10 9 7 5 4 3 3 2 1 3 2 3 3 3 2 3 3 3 4 5 4 4 3 4 4 3 3 2 2
5 4 3 5 6 8 4 6 6 3 3 3 6 11 13 13 13 12 11 11 10 9 8 7 6 5 4 4 3 3 3 3 4 3 3 3 2 2 3 4 4 4 4 4 3 3 2 3 2
7 6 4 5 4 4 0 6 6 3 3 4 4 6 10 12 13 13 13 13 12 11 10 8 7 6 5 5 5 4 4 4 4 3 3 3 3 2 3 4 4 4 4 3 3 2 3 2 2
7 7 5 5 6 6 4 6 5 2 4 5 6 5 8 12 13 13 14 13 12 12 11 9 8 7 6 5 5 4 4 4 3 3 3 3 3 3 3 4 4 4 3 3 3 3 2 2 2
5 5 4 7 7 8 5 5 7 4 5 5 5 6 8 11 12 13 13 13 13 12 11 10 9 8 6 6 5 5 4 4 3 3 3 3 3 3 3 3 3 3 3 3 3 3 3 3 3
3 2 3 5 5 7 7 7 5 4 4 4 7 8 8 9 11 12 12 13 12 11 10 10 9 8 7 6 5 4 4 4 4 4 3 3 3 2 3 3 2 2 2 2 3 3 3 3 2
5 5 5 5 5 7 8 6 3 6 6 6 6 8 8 9 11 12 12 13 12 11 11 10 10 8 7 7 6 5 5 4 4 4 3 3 3 3 2 2 3 3 2 2 2 3 3 3 2
6 6 8 9 8 7 9 8 2 5 6 7 7 7 8 9 10 11 12 12 12 12 12 11 10 9 8 7 6 6 5 5 5 4 3 3 3 3 2 2 3 2 2 3 3 3 3 3 3
Wind_Direction
155 160 175 213 226 221 168 80 64 82 73 59 50 46 52 40 22 60 83 93 119 130 129 133 124 116 119 126 135 164 247 234 233 239 247 257 260 260 261 260 257 257 260 257 254 255 247 240 254
158 170 202 224 232 190 132 98 83 71 93 93 67 57 69 71 63 83 97 96 115 118 118 103 99 91 83 64 35 324 306 295 282 273 267 268 271 270 269 269 266 261 259 259 257 252 247 247 257
157 191 217 219 230 161 116 101 96 97 101 98 90 62 60 79 81 86 99 114 112 109 104 89 78 66 55 41 14 346 314 299 293 291 288 281 277 274 275 275 274 269 264 262 260 256 249 249 255
171 194 219 231 205 101 104 116 118 120 115 99 114 99 87 73 80 101 114 115 110 105 97 83 56 49 41 21 2 347 320 308 305 302 296 292 287 281 275 274 272 273 270 267 260 252 250 250 253
200 225 217 202 176 112 126 133 149 144 116 121 117 105 103 98 106 115 117 114 111 104 92 82 56 40 35 22 13 3 349 334 320 308 304 301 296 292 288 280 275 273 270 268 264 255 248 251 254
205 236 239 202 146 140 156 163 174 170 127 136 127 117 107 127 131 124 118 113 106 97 85 81 77 48 38 31 20 5 350 339 328 321 314 306 299 292 286 285 289 284 277 271 266 260 251 253 260
239 243 249 216 166 163 158 170 187 179 158 140 140 124 127 144 140 135 127 118 105 99 86 63 56 64 62 40 22 7 355 346 335 325 318 311 301 289 282 280 281 282 276 268 265 264 257 248 252
254 258 242 203 195 163 149 166 171 183 131 123 164 141 139 152 150 146 140 135 123 111 89 57 39 20 1 360 35 10 360 352 341 328 319 305 278 263 259 259 262 268 267 263 257 255 259 254 246
221 236 241 215 204 152 162 175 156 155 149 147 142 88 121 145 155 159 160 157 144 122 73 37 11 7 353 340 5 342 337 344 307 284 297 286 282 279 257 264 288 269 257 257 253 241 243 252 239
212 231 222 212 219 177 180 190 169 173 180 167 153 136 141 155 167 173 175 167 158 130 50 15 2 358 348 344 341 332 325 334 319 319 314 301 298 290 283 222 242 257 250 242 234 233 229 234 233
208 230 205 203 209 202 190 190 191 199 203 197 176 161 162 169 176 181 180 171 150 102 29 1 353 354 347 346 342 341 332 329 322 328 316 303 295 282 274 271 242 247 243 241 217 220 221 219 225
208 217 204 182 184 204 199 189 203 221 216 166 164 162 168 178 183 186 185 177 178 217 357 352 348 348 350 349 347 334 337 336 337 338 331 322 312 301 303 283 287 286 276 257 242 230 216 219 224
215 195 192 194 195 213 213 212 217 224 209 172 161 168 177 182 184 187 187 185 202 210 271 353 343 347 348 351 335 338 349 342 347 345 333 332 320 313 308 294 289 281 287 271 252 246 229 226 229
199 191 192 193 200 207 218 224 223 220 185 177 176 182 185 186 189 189 194 199 209 218 265 342 337 343 339 340 339 349 344 342 341 348 342 338 332 324 316 303 297 292 287 287 272 254 239 231 227
166 188 201 204 206 207 223 232 224 209 184 186 187 188 189 191 194 203 201 201 210 209 229 3 335 337 338 343 345 342 339 342 347 350 344 346 343 333 327 322 317 310 294 280 275 266 254 235 228
184 210 214 192 202 201 224 252 198 187 192 195 195 191 193 196 201 204 200 198 195 192 198 67 332 334 346 344 336 339 342 346 344 349 345 348 350 343 336 332 334 326 304 292 272 267 257 238 232
205 229 233 193 197 202 225 261 171 182 200 203 201 198 196 198 203 200 196 193 186 183 204 186 3 344 348 345 336 340 346 350 347 353 357 353 354 348 346 342 340 342 326 311 292 282 274 262 246
210 229 238 232 186 218 238 255 226 197 211 217 208 206 204 207 203 195 191 184 178 177 187 171 56 344 349 334 326 351 352 356 1 2 7 356 349 352 350 342 346 349 346 342 324 315 286 286 283
240 248 259 279 211 237 255 265 260 220 218 221 216 211 211 211 199 188 186 184 182 179 188 192 289 14 352 344 334 344 359 356 4 11 10 358 356 354 355 346 356 352 352 347 337 326 295 282 289
246 258 268 278 207 257 278 275 268 241 227 226 222 214 212 206 197 191 193 191 190 185 194 202 148 35 16 9 352 347 338 340 3 352 6 4 5 0 353 356 354 1 351 349 351 338 313 310 307
244 260 282 294 293 244 286 278 258 231 226 226 227 223 213 207 203 196 195 194 190 189 192 191 157 137 103 38 343 327 325 293 335 9 10 7 4 6 4 2 359 359 353 0 355 347 335 326 342
246 273 272 271 272 282 279 297 289 227 227 222 218 214 212 205 205 198 194 191 193 190 186 190 177 174 147 222 307 337 340 352 1 346 357 359 7 7 4 1 0 1 2 2 359 9 341 329 327
259 56 240 255 267 279 258 278 289 213 243 223 212 209 207 201 200 197 194 190 189 183 183 190 186 191 194 231 264 283 309 335 335 327 339 339 9 3 4 356 356 357 360 3 360 360 351 340 331
155 172 187 225 257 270 284 273 286 259 253 235 205 206 204 200 197 195 188 184 183 182 183 189 195 202 208 229 248 265 294 304 317 319 332 329 348 354 6 347 345 349 356 359 352 347 348 338 331
199 230 248 245 245 277 123 264 270 293 267 268 253 214 202 197 193 189 184 185 186 186 188 193 199 208 215 230 246 255 271 290 299 313 327 324 331 338 357 344 340 346 351 347 340 332 331 327 324
210 241 269 290 293 301 251 259 276 288 264 267 256 232 198 193 193 191 189 188 189 188 190 196 202 212 218 231 242 253 258 268 290 300 310 317 324 333 340 337 339 342 337 331 336 317 326 326 319
198 227 286 286 291 289 277 273 286 248 251 238 226 209 199 194 193 194 191 191 190 189 191 196 202 211 217 227 237 244 251 260 275 277 290 306 314 318 324 329 324 337 333 333 330 328 332 323 315
302 185 204 258 289 292 291 285 287 317 308 240 219 212 203 196 195 195 191 192 191 190 190 193 202 210 215 219 228 241 250 250 263 274 282 296 307 310 309 308 318 329 326 327 327 323 336 312 321
177 200 232 252 266 282 297 304 331 308 311 284 243 221 209 200 197 194 192 191 190 189 189 193 199 207 211 218 224 232 234 242 245 253 262 270 280 278 289 304 313 324 330 333 337 325 326 316 312
241 241 233 257 264 259 283 291 307 264 285 279 259 231 215 207 201 197 193 189 189 192 193 197 200 204 208 215 221 229 228 230 239 234 240 254 267 281 283 292 298 313 322 330 327 321 319 320 317
Height
1521 1522 1523 1525 1525 1522 1519 1515 1511 1513 1514 1517 1517 1516 1515 1518 1520 1528 1529 1526 1528 1529 1530 1530 1530 1531 1532 1532 1533 1533 1533 1533 1533 1533 1533 1533 1533 1533 1533 1533 1533 1533 1533 1533 1532 1532 1532 1532 1531
1521 1522 1525 1525 1521 1522 1519 1513 1513 1514 1516 1519 1519 1519 1518 1522 1525 1527 1527 1527 1529 1530 1530 1531 1531 1531 1531 1532 1532 1532 1532 1532 1532 1532 1532 1532 1532 1532 1532 1532 1532 1532 1532 1532 1532 1531 1531 1531 1531
1521 1522 1524 1521 1518 1517 1518 1513 1513 1516 1519 1519 1520 1521 1521 1525 1527 1528 1528 1529 1530 1531 1531 1531 1531 1531 1531 1531 1531 1531 1531 1530 1530 1530 1530 1530 1530 1530 1530 1530 1530 1530 1530 1530 1531 1530 1530 1530 1530
1522 1523 1523 1519 1517 1514 1513 1513 1515 1517 1519 1520 1520 1522 1524 1527 1528 1529 1529 1530 1531 1531 1531 1531 1531 1531 1530 1530 1530 1529 1529 1529 1529 1528 1528 1528 1528 1528 1528 1528 1528 1528 1529 1529 1529 1529 1529 1529 1529
1521 1521 1518 1517 1515 1512 1513 1514 1515 1516 1518 1520 1520 1522 1526 1528 1529 1530 1530 1531 1532 1532 1532 1532 1530 1530 1529 1529 1528 1528 1528 1527 1527 1526 1526 1526 1526 1526 1526 1526 1526 1526 1526 1527 1527 1528 1528 1528 1528
1521 1518 1518 1518 1515 1513 1513 1515 1516 1516 1519 1521 1521 1522 1527 1529 1530 1531 1531 1532 1532 1532 1532 1531 1530 1529 1529 1528 1527 1526 1526 1525 1525 1524 1524 1524 1524 1523 1523 1524 1524 1524 1524 1525 1525 1526 1526 1526 1526
1520 1516 1516 1514 1514 1513 1514 1516 1516 1516 1518 1521 1522 1523 1527 1529 1530 1531 1532 1532 1532 1532 1532 1532 1531 1529 1528 1527 1526 1525 1524 1523 1523 1522 1521 1521 1521 1521 1521 1521 1521 1521 1522 1522 1523 1523 1524 1524 1525
1518 1516 1514 1513 1513 1513 1514 1516 1517 1517 1519 1522 1523 1523 1526 1529 1530 1531 1532 1533 1532 1532 1532 1531 1530 1529 1528 1527 1525 1523 1522 1521 1521 1520 1519 1519 1518 1518 1518 1518 1518 1518 1519 1519 1520 1520 1521 1522 1523
1517 1516 1515 1511 1512 1512 1514 1515 1518 1519 1520 1522 1523 1524 1526 1528 1530 1531 1532 1533 1533 1532 1532 1531 1530 1529 1527 1526 1524 1522 1521 1520 1519 1519 1517 1517 1517 1517 1516 1515 1515 1515 1516 1516 1517 1518 1518 1519 1520
1515 1514 1511 1510 1510 1511 1513 1514 1516 1518 1519 1521 1523 1525 1526 1528 1529 1531 1532 1533 1533 1533 1532 1531 1530 1528 1527 1525 1523 1521 1520 1519 1518 1517 1516 1516 1515 1514 1514 1513 1512 1512 1513 1513 1514 1515 1516 1517 1518
1512 1509 1508 1510 1511 1512 1513 1515 1516 1516 1517 1519 1521 1523 1525 1528 1529 1530 1531 1532 1532 1532 1531 1530 1529 1527 1526 1524 1523 1521 1519 1518 1517 1516 1515 1514 1513 1513 1512 1512 1511 1511 1510 1511 1511 1512 1513 1514 1516
1510 1509 1510 1510 1512 1513 1513 1514 1516 1516 1516 1518 1520 1522 1524 1527 1528 1529 1530 1531 1531 1531 1531 1529 1528 1527 1525 1524 1522 1520 1519 1518 1517 1515 1514 1513 1512 1511 1511 1510 1510 1509 1509 1509 1509 1510 1511 1512 1513
1509 1509 1510 1511 1512 1513 1514 1514 1514 1515 1516 1518 1519 1522 1523 1525 1527 1529 1530 1530 1530 1530 1530 1529 1527 1526 1524 1522 1521 1520 1518 1517 1516 1514 1513 1512 1511 1510 1509 1508 1507 1507 1507 1507 1507 1508 1509 1509 1511
1507 1509 1510 1511 1512 1512 1512 1512 1513 1512 1515 1516 1518 1520 1522 1524 1526 1527 1528 1529 1529 1529 1529 1528 1526 1525 1523 1522 1521 1520 1518 1516 1515 1514 1512 1511 1510 1509 1508 1507 1506 1506 1505 1505 1505 1506 1506 1507 1508
1509 1508 1508 1509 1510 1510 1512 1510 1509 1510 1513 1515 1516 1518 1521 1523 1524 1526 1527 1528 1528 1528 1528 1527 1525 1524 1523 1521 1520 1519 1517 1516 1515 1513 1512 1510 1509 1508 1507 1506 1505 1504 1504 1504 1504 1504 1504 1505 1506
1507 1507 1508 1506 1508 1509 1512 1508 1504 1508 1511 1512 1514 1516 1519 1521 1523 1524 1526 1526 1527 1527 1527 1525 1524 1523 1522 1520 1519 1518 1517 1515 1514 1513 1511 1510 1508 1507 1505 1504 1504 1503 1502 1502 1502 1502 1503 1504 1504
1505 1506 1505 1505 1506 1507 1508 1504 1504 1507 1509 1509 1511 1513 1516 1519 1521 1522 1524 1525 1525 1525 1525 1525 1524 1522 1521 1519 1518 1517 1516 1515 1514 1512 1511 1509 1508 1506 1505 1503 1502 1502 1501 1501 1501 1501 1501 1502 1502
1506 1504 1504 1503 1502 1505 1504 1501 1501 1504 1506 1506 1508 1511 1513 1516 1518 1520 1522 1523 1523 1524 1524 1524 1522 1521 1520 1519 1518 1517 1516 1515 1514 1512 1510 1508 1507 1506 1504 1503 1502 1501 1501 1500 1500 1500 1500 1500 1501
1499 1501 1502 1500 1500 1503 1501 1498 1495 1499 1502 1503 1505 1507 1510 1513 1516 1518 1519 1520 1521 1522 1522 1523 1522 1521 1519 1519 1518 1517 1517 1515 1514 1512 1510 1508 1507 1505 1504 1503 1502 1500 1500 1500 1499 1499 1499 1499 1500
1501 1502 1500 1499 1501 1501 1498 1495 1491 1493 1497 1498 1500 1503 1506 1510 1513 1515 1517 1518 1519 1520 1521 1522 1521 1520 1519 1518 1518 1517 1515 1515 1513 1512 1510 1509 1507 1505 1504 1503 1502 1501 1500 1499 1499 1498 1498 1499 1499
1500 1501 1499 1501 1501 1500 1500 1494 1488 1489 1493 1495 1497 1499 1502 1506 1509 1512 1514 1516 1517 1518 1520 1520 1520 1519 1518 1517 1517 1516 1516 1515 1514 1513 1511 1509 1507 1505 1504 1503 1502 1501 1500 1499 1498 1498 1498 1498 1498
1500 1498 1500 1502 1502 1498 1501 1501 1486 1485 1489 1491 1493 1496 1498 1502 1505 1508 1511 1512 1514 1517 1518 1519 1519 1518 1518 1517 1517 1517 1516 1515 1514 1513 1511 1509 1507 1506 1504 1503 1502 1501 1500 1499 1499 1498 1498 1497 1498
1498 1501 1500 1500 1499 1499 1496 1500 1487 1484 1485 1484 1487 1491 1495 1498 1502 1505 1507 1510 1512 1514 1515 1516 1517 1517 1517 1516 1516 1516 1516 1515 1514 1512 1511 1510 1508 1506 1505 1503 1502 1501 1500 1499 1498 1498 1498 1498 1498
1502 1502 1501 1499 1498 1504 1496 1500 1492 1480 1481 1480 1483 1487 1491 1495 1498 1502 1504 1507 1509 1511 1512 1514 1515 1515 1515 1515 1516 1515 1515 1514 1513 1512 1511 1510 1509 1507 1505 1503 1502 1502 1501 1499 1498 1498 1497 1497 1497
1500 1501 1506 1505 1505 1501 1496 1499 1489 1477 1480 1481 1483 1485 1488 1492 1495 1498 1501 1503 1506 1508 1510 1511 1513 1514 1514 1514 1515 1515 1514 1513 1513 1512 1511 1510 1509 1507 1505 1504 1503 1502 1500 1499 1498 1498 1497 1497 1497
1495 1495 1506 1513 1508 1498 1495 1495 1481 1477 1480 1482 1483 1484 1486 1489 1492 1495 1498 1500 1503 1506 1507 1509 1511 1512 1512 1513 1513 1513 1513 1512 1512 1511 1510 1509 1508 1507 1505 1503 1502 1501 1500 1499 1498 1498 1497 1496 1496
1495 1494 1492 1498 1499 1504 1491 1485 1477 1475 1477 1479 1480 1482 1484 1486 1488 1492 1495 1498 1500 1503 1505 1507 1508 1510 1511 1511 1512 1512 1512 1511 1511 1510 1509 1509 1507 1506 1504 1503 1502 1501 1499 1499 1498 1497 1497 1496 1495
1494 1492 1497 1500 1507 1508 1497 1490 1483 1474 1474 1475 1478 1480 1482 1484 1486 1489 1492 1494 1498 1500 1502 1504 1506 1508 1509 1509 1510 1510 1510 1510 1509 1509 1508 1507 1506 1505 1504 1503 1502 1501 1500 1498 1497 1497 1495 1495 1494
1497 1498 1494 1494 1497 1506 1504 1491 1474 1474 1474 1474 1475 1477 1480 1482 1484 1486 1489 1492 1495 1497 1500 1502 1504 1505 1507 1508 1508 1508 1509 1508 1508 1507 1507 1506 1505 1504 1503 1502 1502 1501 1500 1499 1497 1496 1495 1494 1494
1490 1490 1492 1498 1496 1496 1499 1490 1469 1473 1473 1474 1474 1475 1477 1479 1481 1483 1486 1489 1491 1494 1497 1499 1501 1503 1504 1505 1506 1507 1507 1507 1507 1507 1506 1505 1505 1504 1503 1502 1501 1500 1499 1498 1497 1496 1495 1494 1493